TimeCST,TemperatureF,Dew PointF,Humidity,Sea Level PressureIn,VisibilityMPH,Wind Direction,Wind SpeedMPH,Gust SpeedMPH,PrecipitationIn,Events,Conditions,WindDirDegrees,DateUTC
12:13 AM,28.4,19.4,69,29.70,7.0,SW,17.3,-,N/A,Snow,Light Snow,230,2013-01-16 06:13:00
12:34 AM,28.4,21.2,74,29.69,10.0,SW,16.1,20.7,N/A,,Overcast,230,2013-01-16 06:34:00
12:54 AM,30.2,24.8,80,29.68,10.0,WSW,16.1,24.2,N/A,,Overcast,240,2013-01-16 06:54:00
1:13 AM,30.2,24.8,80,29.67,10.0,WSW,13.8,-,N/A,,Overcast,240,2013-01-16 07:13:00
1:34 AM,30.2,26.6,86,29.67,10.0,WSW,12.7,19.6,N/A,,Overcast,250,2013-01-16 07:34:00
1:54 AM,30.2,26.6,86,29.66,10.0,WSW,11.5,-,N/A,,Overcast,240,2013-01-16 07:54:00
2:34 AM,33.8,28.4,81,29.66,10.0,West,17.3,20.7,N/A,,Overcast,260,2013-01-16 08:34:00
2:53 AM,33.8,28.4,81,29.66,10.0,West,15.0,-,N/A,,Overcast,260,2013-01-16 08:53:00
3:14 AM,33.8,30.2,87,29.65,10.0,West,21.9,27.6,N/A,,Overcast,260,2013-01-16 09:14:00
3:33 AM,35.6,30.2,81,29.66,10.0,West,21.9,28.8,N/A,,Overcast,280,2013-01-16 09:33:00
3:53 AM,35.6,30.2,81,29.66,10.0,West,19.6,-,N/A,,Overcast,280,2013-01-16 09:53:00
4:33 AM,37.4,32.0,81,29.65,10.0,West,17.3,-,N/A,,Overcast,280,2013-01-16 10:33:00
4:53 AM,37.4,30.2,75,29.66,10.0,WNW,17.3,-,N/A,,Overcast,290,2013-01-16 10:53:00
5:14 AM,37.4,30.2,75,29.66,10.0,WNW,17.3,-,N/A,,Overcast,290,2013-01-16 11:14:00
5:33 AM,35.6,30.2,81,29.67,10.0,WNW,13.8,-,N/A,,Mostly Cloudy,290,2013-01-16 11:33:00
5:53 AM,35.6,30.2,81,29.69,10.0,WNW,12.7,-,N/A,,Scattered Clouds,290,2013-01-16 11:53:00
6:34 AM,35.6,30.2,81,29.70,10.0,WNW,11.5,-,N/A,,Scattered Clouds,290,2013-01-16 12:34:00
6:53 AM,33.8,30.2,87,29.71,10.0,WNW,10.4,-,N/A,,Scattered Clouds,300,2013-01-16 12:53:00
7:14 AM,35.6,30.2,81,29.71,10.0,WNW,10.4,-,N/A,,Mostly Cloudy,300,2013-01-16 13:14:00
7:34 AM,35.6,30.2,81,29.72,10.0,WNW,10.4,-,N/A,,Overcast,300,2013-01-16 13:34:00
7:53 AM,35.6,30.2,81,29.73,10.0,West,6.9,-,N/A,,Overcast,270,2013-01-16 13:53:00
8:14 AM,35.6,30.2,81,29.73,10.0,West,8.1,-,N/A,,Overcast,280,2013-01-16 14:14:00
8:33 AM,35.6,30.2,81,29.74,10.0,West,8.1,-,N/A,,Overcast,280,2013-01-16 14:33:00
8:54 AM,35.6,30.2,81,29.74,10.0,WSW,4.6,-,N/A,,Overcast,250,2013-01-16 14:54:00
9:14 AM,35.6,30.2,81,29.75,10.0,West,8.1,-,N/A,,Overcast,270,2013-01-16 15:14:00
9:33 AM,35.6,30.2,81,29.76,10.0,West,8.1,-,N/A,,Overcast,270,2013-01-16 15:33:00
9:54 AM,35.6,30.2,81,29.76,10.0,West,9.2,-,N/A,,Overcast,270,2013-01-16 15:54:00
10:14 AM,35.6,30.2,81,29.77,10.0,NNW,5.8,-,N/A,,Overcast,330,2013-01-16 16:14:00
10:33 AM,35.6,30.2,81,29.77,10.0,NW,8.1,-,N/A,,Overcast,310,2013-01-16 16:33:00
10:54 AM,33.8,30.2,87,29.78,7.0,NNE,12.7,-,N/A,,Light Drizzle,20,2013-01-16 16:54:00
11:14 AM,30.2,28.4,93,29.80,4.0,North,13.8,-,N/A,,Mostly Cloudy,10,2013-01-16 17:14:00
11:33 AM,28.4,26.6,93,29.81,2.0,North,16.1,-,N/A,Snow,Light Snow,360,2013-01-16 17:33:00
11:54 AM,26.6,23.0,86,29.84,1.5,North,20.7,-,N/A,Snow,Light Snow,360,2013-01-16 17:54:00
12:14 PM,24.8,21.2,86,29.85,7.0,North,16.1,-,N/A,,Overcast,360,2013-01-16 18:14:00
12:33 PM,24.8,21.2,86,29.86,3.0,North,16.1,-,N/A,Snow,Light Snow,350,2013-01-16 18:33:00
12:54 PM,23.0,19.4,86,29.88,4.0,North,18.4,-,N/A,Snow,Light Snow,350,2013-01-16 18:54:00
1:13 PM,21.2,17.6,86,29.89,10.0,North,20.7,26.5,N/A,,Overcast,350,2013-01-16 19:13:00
1:34 PM,21.2,17.6,86,29.91,5.0,North,21.9,26.5,N/A,,Overcast,350,2013-01-16 19:34:00
2:13 PM,19.4,15.8,86,29.96,10.0,NNW,24.2,-,N/A,,Overcast,340,2013-01-16 20:13:00
2:34 PM,19.4,15.8,86,29.97,10.0,NNW,25.3,28.8,N/A,,Overcast,340,2013-01-16 20:34:00
2:54 PM,19.4,15.8,86,29.99,10.0,NNW,20.7,27.6,N/A,,Overcast,340,2013-01-16 20:54:00
3:13 PM,19.4,14.0,80,30.01,10.0,NNW,20.7,-,N/A,,Overcast,340,2013-01-16 21:13:00
3:34 PM,17.6,8.6,68,30.03,10.0,North,21.9,26.5,N/A,,Mostly Cloudy,350,2013-01-16 21:34:00
3:54 PM,17.6,8.6,68,30.05,10.0,NNW,19.6,-,N/A,,Scattered Clouds,330,2013-01-16 21:54:00
4:34 PM,14.0,3.2,62,30.09,10.0,NW,17.3,25.3,N/A,,Clear,320,2013-01-16 22:34:00
4:54 PM,12.2,-0.4,57,30.11,10.0,NNW,18.4,25.3,N/A,,Clear,330,2013-01-16 22:54:00
5:13 PM,12.2,1.4,62,30.13,10.0,NW,16.1,-,N/A,,Clear,310,2013-01-16 23:13:00
5:34 PM,10.4,-2.2,57,30.14,10.0,NNW,18.4,-,N/A,,Clear,330,2013-01-16 23:34:00
5:54 PM,10.4,-2.2,57,30.16,10.0,NNW,15.0,-,N/A,,Clear,330,2013-01-16 23:54:00
6:13 PM,10.4,-0.4,62,30.18,10.0,NW,17.3,24.2,N/A,,Clear,320,2013-01-17 00:13:00
6:34 PM,8.6,-5.8,52,30.20,10.0,NNW,17.3,25.3,N/A,,Clear,340,2013-01-17 00:34:00
6:54 PM,8.6,-4.0,57,30.21,10.0,NNW,13.8,-,N/A,,Clear,330,2013-01-17 00:54:00
7:13 PM,8.6,-2.2,62,30.22,10.0,NNW,12.7,-,N/A,,Clear,330,2013-01-17 01:13:00
7:33 PM,8.6,-0.4,67,30.22,10.0,NNW,16.1,-,N/A,,Clear,340,2013-01-17 01:33:00
7:54 PM,8.6,-2.2,62,30.25,10.0,NW,11.5,-,N/A,,Clear,320,2013-01-17 01:54:00
8:13 PM,6.8,-2.2,67,30.24,10.0,NW,11.5,-,N/A,,Clear,320,2013-01-17 02:13:00
8:33 PM,6.8,-2.2,67,30.23,10.0,NNW,15.0,-,N/A,,Clear,330,2013-01-17 02:33:00
8:54 PM,6.8,-2.2,67,30.24,10.0,NNW,11.5,-,N/A,,Clear,340,2013-01-17 02:54:00
9:13 PM,6.8,-2.2,67,30.25,10.0,NW,10.4,-,N/A,,Clear,320,2013-01-17 03:13:00
9:33 PM,5.0,-2.2,72,30.26,10.0,NW,9.2,-,N/A,,Clear,320,2013-01-17 03:33:00
9:54 PM,5.0,-4.0,66,30.28,10.0,NNW,12.7,-,N/A,,Clear,330,2013-01-17 03:54:00
10:14 PM,3.2,-5.8,66,30.28,10.0,NW,11.5,-,N/A,,Clear,320,2013-01-17 04:14:00
10:33 PM,3.2,-7.6,61,30.28,10.0,NNW,13.8,-,N/A,,Clear,330,2013-01-17 04:33:00
10:54 PM,3.2,-7.6,61,30.27,10.0,NNW,12.7,-,N/A,,Clear,340,2013-01-17 04:54:00
11:14 PM,3.2,-9.4,56,30.28,10.0,NNW,9.2,-,N/A,,Clear,340,2013-01-17 05:14:00
11:33 PM,3.2,-9.4,56,30.27,10.0,North,10.4,-,N/A,,Clear,360,2013-01-17 05:33:00
11:54 PM,3.2,-9.4,56,30.28,10.0,NNW,5.8,-,N/A,,Clear,340,2013-01-17 05:54:00